owner,sensor,date,latitude,longitude,vertical_datum,direction_of_sea_water_velocity,sea_water_speed,upward_sea_water_velocity,qcFlag 
ADCP,ioos:station:wmo:42890:1,2014-01-01T00:02:00Z,27.6250,-90.4410,15.2,226.0,21.4,-99999.0,'1111122,1111122,1199999999' 
ADCP,ioos:station:wmo:42890:1,2014-01-01T00:22:00Z,27.6250,-90.4410,15.2,232.0,25.0,-9999.0,'11111222,11111222,99999999' 
ADCP,ioos:station:wmo:42890:1,2014-01-01T00:42:00Z,27.6250,-90.4410,15.2,240.0,24.7,-99999.0,'1111122,1111122,1199999999' 
ADCP,ioos:station:wmo:42890:1,2014-01-01T01:02:00Z,27.6250,-90.4410,15.2,243.0,23.6,-99999.0,'1111122,1111122,1199999999' 
ADCP,ioos:station:wmo:42890:1,2014-01-01T01:22:00Z,27.6250,-90.4410,15.2,243.0,29.7,-9999.0,'11111222,11111222,99999999' 
ADCP,ioos:station:wmo:42890:1,2014-01-01T01:42:00Z,27.6250,-90.4410,15.2,239.0,22.0,-99999.0,'1111122,1111122,1199999999' 
ADCP,ioos:station:wmo:42890:1,2014-01-01T02:02:00Z,27.6250,-90.4410,15.2,242.0,20.0,-99999.0,'1111122,1111122,1199999999' 
ADCP,ioos:station:wmo:42890:1,2014-01-01T02:22:00Z,27.6250,-90.4410,15.2,235.0,21.6,-9999.0,'11111222,11111222,99999999' 
ADCP,ioos:station:wmo:42890:1,2014-01-01T02:42:00Z,27.6250,-90.4410,15.2,231.0,21.3,-99999.0,'1111122,1111122,1199999999' 
ADCP,ioos:station:wmo:42890:1,2014-01-01T03:02:00Z,27.6250,-90.4410,15.2,229.0,16.7,-99999.0,'1111122,1111122,1199999999' 
ADCP,ioos:station:wmo:42890:1,2014-01-01T03:22:00Z,27.6250,-90.4410,15.2,238.0,24.4,-9999.0,'11111222,11111222,99999999' 
ADCP,ioos:station:wmo:42890:1,2014-01-01T03:42:00Z,27.6250,-90.4410,15.2,228.0,23.4,-99999.0,'1111122,1111122,1199999999' 
ADCP,ioos:station:wmo:42890:1,2014-01-01T04:02:00Z,27.6250,-90.4410,15.2,235.0,19.0,-9999.0,'11111222,11111222,99999999' 
ADCP,ioos:station:wmo:42890:1,2014-01-01T04:22:00Z,27.6250,-90.4410,15.2,227.0,18.5,-9999.0,'11111222,11111222,99999999' 
ADCP,ioos:station:wmo:42890:1,2014-01-01T04:42:00Z,27.6250,-90.4410,15.2,232.0,23.7,-99999.0,'1111122,1111122,1199999999' 
ADCP,ioos:station:wmo:42890:1,2014-01-01T05:02:00Z,27.6250,-90.4410,15.2,225.0,21.6,-99999.0,'1111122,1111122,1199999999' 
ADCP,ioos:station:wmo:42890:1,2014-01-01T05:22:00Z,27.6250,-90.4410,15.2,215.0,18.4,-9999.0,'11111222,11111222,99999999' 
ADCP,ioos:station:wmo:42890:1,2014-01-01T05:42:00Z,27.6250,-90.4410,15.2,235.0,22.2,-99999.0,'1111122,1111122,1199999999' 
ADCP,ioos:station:wmo:42890:1,2014-01-01T06:02:00Z,27.6250,-90.4410,15.2,226.0,21.6,-99999.0,'1111122,1111122,1199999999' 
ADCP,ioos:station:wmo:42890:1,2014-01-01T06:22:00Z,27.6250,-90.4410,15.2,217.0,21.4,-9999.0,'11111222,11111222,99999999' 
ADCP,ioos:station:wmo:42890:1,2014-01-01T06:42:00Z,27.6250,-90.4410,15.2,220.0,16.8,-99999.0,'1111122,1111122,1199999999' 
ADCP,ioos:station:wmo:42890:1,2014-01-01T07:02:00Z,27.6250,-90.4410,15.2,238.0,20.8,-99999.0,'1111122,1111122,1199999999' 
ADCP,ioos:station:wmo:42890:1,2014-01-01T07:22:00Z,27.6250,-90.4410,15.2,230.0,17.0,-9999.0,'11111222,11111222,99999999' 
ADCP,ioos:station:wmo:42890:1,2014-01-01T07:42:00Z,27.6250,-90.4410,15.2,230.0,18.9,-99999.0,'1111122,1111122,1199999999' 
ADCP,ioos:station:wmo:42890:1,2014-01-01T08:02:00Z,27.6250,-90.4410,15.2,241.0,24.7,-99999.0,'1111122,1111122,1199999999' 
ADCP,ioos:station:wmo:42890:1,2014-01-01T08:22:00Z,27.6250,-90.4410,15.2,241.0,18.6,-9999.0,'11111222,11111222,99999999' 
ADCP,ioos:station:wmo:42890:1,2014-01-01T08:42:00Z,27.6250,-90.4410,15.2,244.0,23.9,-99999.0,'1111122,1111122,1199999999' 
ADCP,ioos:station:wmo:42890:1,2014-01-01T09:02:00Z,27.6250,-90.4410,15.2,242.0,17.6,-99999.0,'1111122,1111122,1199999999' 
ADCP,ioos:station:wmo:42890:1,2014-01-01T09:22:00Z,27.6250,-90.4410,15.2,256.0,21.7,-9999.0,'11111222,11111222,99999999' 
ADCP,ioos:station:wmo:42890:1,2014-01-01T09:42:00Z,27.6250,-90.4410,15.2,243.0,19.6,-99999.0,'1111122,1111122,1199999999' 
ADCP,ioos:station:wmo:42890:1,2014-01-01T10:02:00Z,27.6250,-90.4410,15.2,254.0,17.2,-99999.0,'1111122,1111122,1199999999' 
ADCP,ioos:station:wmo:42890:1,2014-01-01T10:22:00Z,27.6250,-90.4410,15.2,271.0,17.5,-9999.0,'11111222,11111222,99999999' 
ADCP,ioos:station:wmo:42890:1,2014-01-01T10:42:00Z,27.6250,-90.4410,15.2,277.0,16.4,-99999.0,'1111122,1111122,1199999999' 
ADCP,ioos:station:wmo:42890:1,2014-01-01T11:02:00Z,27.6250,-90.4410,15.2,279.0,13.8,-99999.0,'1111122,1111122,1199999999' 
ADCP,ioos:station:wmo:42890:1,2014-01-01T11:22:00Z,27.6250,-90.4410,15.2,274.0,19.4,-9999.0,'11111222,11111222,99999999' 
ADCP,ioos:station:wmo:42890:1,2014-01-01T11:42:00Z,27.6250,-90.4410,15.2,273.0,14.2,-99999.0,'1111122,1111122,1199999999' 
ADCP,ioos:station:wmo:42890:1,2014-01-01T12:02:00Z,27.6250,-90.4410,15.2,268.0,16.1,-99999.0,'1111122,1111122,1199999999' 
ADCP,ioos:station:wmo:42890:1,2014-01-01T12:22:00Z,27.6250,-90.4410,15.2,267.0,16.3,-9999.0,'11111222,11111222,99999999' 
ADCP,ioos:station:wmo:42890:1,2014-01-01T12:42:00Z,27.6250,-90.4410,15.2,277.0,14.3,-99999.0,'1111122,1111122,1199999999' 
ADCP,ioos:station:wmo:42890:1,2014-01-01T13:02:00Z,27.6250,-90.4410,15.2,278.0,13.8,-99999.0,'1111122,1111122,1199999999' 
ADCP,ioos:station:wmo:42890:1,2014-01-01T13:22:00Z,27.6250,-90.4410,15.2,285.0,17.1,-9999.0,'11111222,11111222,99999999' 
ADCP,ioos:station:wmo:42890:1,2014-01-01T13:42:00Z,27.6250,-90.4410,15.2,274.0,16.2,-99999.0,'1111122,1111122,1199999999' 
ADCP,ioos:station:wmo:42890:1,2014-01-01T14:02:00Z,27.6250,-90.4410,15.2,275.0,19.4,-99999.0,'1111122,1111122,1199999999' 
ADCP,ioos:station:wmo:42890:1,2014-01-01T14:22:00Z,27.6250,-90.4410,15.2,269.0,20.0,-9999.0,'11111222,11111222,99999999' 
ADCP,ioos:station:wmo:42890:1,2014-01-01T14:42:00Z,27.6250,-90.4410,15.2,266.0,17.9,-99999.0,'1111122,1111122,1199999999' 
ADCP,ioos:station:wmo:42890:1,2014-01-01T15:02:00Z,27.6250,-90.4410,15.2,259.0,21.6,-99999.0,'1111122,1111122,1199999999' 
ADCP,ioos:station:wmo:42890:1,2014-01-01T15:22:00Z,27.6250,-90.4410,15.2,269.0,17.4,-9999.0,'11111222,11111222,99999999' 
ADCP,ioos:station:wmo:42890:1,2014-01-01T15:42:00Z,27.6250,-90.4410,15.2,275.0,18.1,-99999.0,'1111122,1111122,1199999999' 
ADCP,ioos:station:wmo:42890:1,2014-01-01T16:02:00Z,27.6250,-90.4410,15.2,271.0,19.5,-99999.0,'1111122,1111122,1199999999' 
ADCP,ioos:station:wmo:42890:1,2014-01-01T16:22:00Z,27.6250,-90.4410,15.2,260.0,25.6,-9999.0,'11111222,11111222,99999999' 
ADCP,ioos:station:wmo:42890:1,2014-01-01T16:42:00Z,27.6250,-90.4410,15.2,274.0,16.6,-99999.0,'1111122,1111122,1199999999' 
ADCP,ioos:station:wmo:42890:1,2014-01-01T17:02:00Z,27.6250,-90.4410,15.2,275.0,17.1,-99999.0,'1111122,1111122,1199999999' 
ADCP,ioos:station:wmo:42890:1,2014-01-01T17:22:00Z,27.6250,-90.4410,15.2,281.0,19.2,-9999.0,'11111222,11111222,99999999' 
ADCP,ioos:station:wmo:42890:1,2014-01-01T17:42:00Z,27.6250,-90.4410,15.2,292.0,19.7,-99999.0,'1111122,1111122,1199999999' 
ADCP,ioos:station:wmo:42890:1,2014-01-01T18:02:00Z,27.6250,-90.4410,15.2,294.0,21.4,-99999.0,'1111122,1111122,1199999999' 
ADCP,ioos:station:wmo:42890:1,2014-01-01T18:22:00Z,27.6250,-90.4410,15.2,290.0,21.0,-9999.0,'11111222,11111222,99999999' 
ADCP,ioos:station:wmo:42890:1,2014-01-01T18:42:00Z,27.6250,-90.4410,15.2,292.0,18.8,-99999.0,'1111122,1111122,1199999999' 
ADCP,ioos:station:wmo:42890:1,2014-01-01T19:02:00Z,27.6250,-90.4410,15.2,294.0,19.6,-99999.0,'1111122,1111122,1199999999' 
ADCP,ioos:station:wmo:42890:1,2014-01-01T19:22:00Z,27.6250,-90.4410,15.2,293.0,20.4,-9999.0,'11111222,11111222,99999999' 
ADCP,ioos:station:wmo:42890:1,2014-01-01T19:42:00Z,27.6250,-90.4410,15.2,293.0,18.6,-99999.0,'1111122,1111122,1199999999' 
ADCP,ioos:station:wmo:42890:1,2014-01-01T20:02:00Z,27.6250,-90.4410,15.2,289.0,18.1,-99999.0,'1111122,1111122,1199999999' 
ADCP,ioos:station:wmo:42890:1,2014-01-01T20:22:00Z,27.6250,-90.4410,15.2,286.0,18.6,-9999.0,'11111222,11111222,99999999' 
ADCP,ioos:station:wmo:42890:1,2014-01-01T20:42:00Z,27.6250,-90.4410,15.2,293.0,17.0,-99999.0,'1111122,1111122,1199999999' 
ADCP,ioos:station:wmo:42890:1,2014-01-01T21:02:00Z,27.6250,-90.4410,15.2,299.0,18.8,-99999.0,'1111122,1111122,1199999999' 
ADCP,ioos:station:wmo:42890:1,2014-01-01T21:22:00Z,27.6250,-90.4410,15.2,293.0,18.0,-9999.0,'11111222,11111222,99999999' 
ADCP,ioos:station:wmo:42890:1,2014-01-01T21:42:00Z,27.6250,-90.4410,15.2,289.0,16.7,-99999.0,'1111122,1111122,1199999999' 
ADCP,ioos:station:wmo:42890:1,2014-01-01T22:02:00Z,27.6250,-90.4410,15.2,312.0,14.7,-99999.0,'1111122,1111122,1199999999' 
ADCP,ioos:station:wmo:42890:1,2014-01-01T22:22:00Z,27.6250,-90.4410,15.2,302.0,17.1,-9999.0,'11111222,11111222,99999999' 
ADCP,ioos:station:wmo:42890:1,2014-01-01T22:42:00Z,27.6250,-90.4410,15.2,305.0,14.8,-99999.0,'1111122,1111122,1199999999' 
ADCP,ioos:station:wmo:42890:1,2014-01-01T23:02:00Z,27.6250,-90.4410,15.2,295.0,13.5,-99999.0,'1111122,1111122,1199999999' 
ADCP,ioos:station:wmo:42890:1,2014-01-01T23:22:00Z,27.6250,-90.4410,15.2,321.0,13.7,-9999.0,'11111222,11111222,99999999' 
ADCP,ioos:station:wmo:42890:1,2014-01-01T23:42:00Z,27.6250,-90.4410,15.2,324.0,14.9,-99999.0,'1111122,1111122,1199999999' 
ADCP,ioos:station:wmo:42890:1,2014-01-02T00:02:00Z,27.6250,-90.4410,15.2,322.0,15.2,-99999.0,'1111122,1111122,1199999999' 
ADCP,ioos:station:wmo:42890:1,2014-01-02T00:22:00Z,27.6250,-90.4410,15.2,315.0,16.8,-9999.0,'11111222,11111222,99999999' 
ADCP,ioos:station:wmo:42890:1,2014-01-02T00:42:00Z,27.6250,-90.4410,15.2,307.0,20.6,-99999.0,'1111122,1111122,1199999999' 
ADCP,ioos:station:wmo:42890:1,2014-01-02T01:02:00Z,27.6250,-90.4410,15.2,307.0,21.0,-99999.0,'1111122,1111122,1199999999' 
ADCP,ioos:station:wmo:42890:1,2014-01-02T01:22:00Z,27.6250,-90.4410,15.2,302.0,22.2,-9999.0,'11111222,11111222,99999999' 
ADCP,ioos:station:wmo:42890:1,2014-01-02T01:42:00Z,27.6250,-90.4410,15.2,303.0,22.4,-99999.0,'1111122,1111122,1199999999' 
ADCP,ioos:station:wmo:42890:1,2014-01-02T02:02:00Z,27.6250,-90.4410,15.2,307.0,21.3,-99999.0,'1111122,1111122,1199999999' 
ADCP,ioos:station:wmo:42890:1,2014-01-02T02:22:00Z,27.6250,-90.4410,15.2,307.0,19.0,-9999.0,'11111222,11111222,99999999' 
ADCP,ioos:station:wmo:42890:1,2014-01-02T02:42:00Z,27.6250,-90.4410,15.2,303.0,19.3,-99999.0,'1111122,1111122,1199999999' 
ADCP,ioos:station:wmo:42890:1,2014-01-02T03:02:00Z,27.6250,-90.4410,15.2,307.0,19.6,-99999.0,'1111122,1111122,1199999999' 
ADCP,ioos:station:wmo:42890:1,2014-01-02T03:22:00Z,27.6250,-90.4410,15.2,318.0,17.8,-9999.0,'11111222,11111222,99999999' 
ADCP,ioos:station:wmo:42890:1,2014-01-02T03:42:00Z,27.6250,-90.4410,15.2,325.0,14.4,-99999.0,'1111122,1111122,1199999999' 
ADCP,ioos:station:wmo:42890:1,2014-01-02T04:02:00Z,27.6250,-90.4410,15.2,339.0,15.5,-99999.0,'1111122,1111122,1199999999' 
ADCP,ioos:station:wmo:42890:1,2014-01-02T04:22:00Z,27.6250,-90.4410,15.2,340.0,15.5,-9999.0,'11111222,11111222,99999999' 
ADCP,ioos:station:wmo:42890:1,2014-01-02T04:42:00Z,27.6250,-90.4410,15.2,340.0,15.8,-99999.0,'1111122,1111122,1199999999' 
ADCP,ioos:station:wmo:42890:1,2014-01-02T05:02:00Z,27.6250,-90.4410,15.2,343.0,15.2,-99999.0,'1111122,1111122,1199999999' 
ADCP,ioos:station:wmo:42890:1,2014-01-02T05:22:00Z,27.6250,-90.4410,15.2,351.0,18.3,-9999.0,'11111222,11111222,99999999' 
ADCP,ioos:station:wmo:42890:1,2014-01-02T05:42:00Z,27.6250,-90.4410,15.2,349.0,16.3,-99999.0,'1111122,1111122,1199999999' 
ADCP,ioos:station:wmo:42890:1,2014-01-02T06:02:00Z,27.6250,-90.4410,15.2,358.0,17.5,-99999.0,'1111122,1111122,1199999999' 
ADCP,ioos:station:wmo:42890:1,2014-01-02T06:22:00Z,27.6250,-90.4410,15.2,359.0,16.2,-99999.0,'1111122,1111122,1199999999' 
ADCP,ioos:station:wmo:42890:1,2014-01-02T06:42:00Z,27.6250,-90.4410,15.2,7.0,21.3,-9999.0,'11111222,11111222,99999999' 
ADCP,ioos:station:wmo:42890:1,2014-01-02T07:02:00Z,27.6250,-90.4410,15.2,20.0,22.5,-9999.0,'11111222,11111222,99999999' 
ADCP,ioos:station:wmo:42890:1,2014-01-02T07:22:00Z,27.6250,-90.4410,15.2,25.0,22.6,-9999.0,'11111222,11111222,99999999' 
ADCP,ioos:station:wmo:42890:1,2014-01-02T07:42:00Z,27.6250,-90.4410,15.2,18.0,20.3,-99999.0,'1111122,1111122,1199999999' 
ADCP,ioos:station:wmo:42890:1,2014-01-02T08:02:00Z,27.6250,-90.4410,15.2,8.0,16.2,-99999.0,'1111122,1111122,1199999999' 
ADCP,ioos:station:wmo:42890:1,2014-01-02T08:22:00Z,27.6250,-90.4410,15.2,30.0,17.1,-9999.0,'11111222,11111222,99999999' 
ADCP,ioos:station:wmo:42890:1,2014-01-02T08:42:00Z,27.6250,-90.4410,15.2,34.0,17.8,-99999.0,'1111122,1111122,1199999999' 
ADCP,ioos:station:wmo:42890:1,2014-01-02T09:02:00Z,27.6250,-90.4410,15.2,38.0,19.2,-99999.0,'1111122,1111122,1199999999' 
ADCP,ioos:station:wmo:42890:1,2014-01-02T09:22:00Z,27.6250,-90.4410,15.2,22.0,18.3,-9999.0,'11111222,11111222,99999999' 
ADCP,ioos:station:wmo:42890:1,2014-01-02T09:42:00Z,27.6250,-90.4410,15.2,10.0,13.7,-99999.0,'1111122,1111122,1199999999' 
ADCP,ioos:station:wmo:42890:1,2014-01-02T10:02:00Z,27.6250,-90.4410,15.2,319.0,14.8,-99999.0,'1111122,1111122,1199999999' 
ADCP,ioos:station:wmo:42890:1,2014-01-02T10:22:00Z,27.6250,-90.4410,15.2,14.0,9.8,-9999.0,'11133222,11111222,99999999' 
ADCP,ioos:station:wmo:42890:1,2014-01-02T10:42:00Z,27.6250,-90.4410,15.2,31.0,14.1,-99999.0,'1111122,1111122,1199999999' 
ADCP,ioos:station:wmo:42890:1,2014-01-02T11:02:00Z,27.6250,-90.4410,15.2,39.0,15.9,-99999.0,'1111122,1111122,1199999999' 
ADCP,ioos:station:wmo:42890:1,2014-01-02T11:22:00Z,27.6250,-90.4410,15.2,37.0,14.4,-9999.0,'11111222,11111222,99999999' 
ADCP,ioos:station:wmo:42890:1,2014-01-02T11:42:00Z,27.6250,-90.4410,15.2,32.0,10.4,-99999.0,'1111122,1111122,1199999999' 
ADCP,ioos:station:wmo:42890:1,2014-01-02T12:02:00Z,27.6250,-90.4410,15.2,70.0,27.1,-99999.0,'1111122,1111122,1199999999' 
ADCP,ioos:station:wmo:42890:1,2014-01-02T12:22:00Z,27.6250,-90.4410,15.2,71.0,21.9,-9999.0,'11111222,11111222,99999999' 
ADCP,ioos:station:wmo:42890:1,2014-01-02T12:42:00Z,27.6250,-90.4410,15.2,93.0,8.5,-99999.0,'1111122,1111122,1199999999' 
ADCP,ioos:station:wmo:42890:1,2014-01-02T13:02:00Z,27.6250,-90.4410,15.2,169.0,11.1,-99999.0,'1111122,1111122,1199999999' 
ADCP,ioos:station:wmo:42890:1,2014-01-02T13:22:00Z,27.6250,-90.4410,15.2,118.0,8.9,-99999.0,'1111122,1111122,1199999999' 
ADCP,ioos:station:wmo:42890:1,2014-01-02T13:42:00Z,27.6250,-90.4410,15.2,92.0,12.6,-9999.0,'11111222,11111222,99999999' 
ADCP,ioos:station:wmo:42890:1,2014-01-02T14:02:00Z,27.6250,-90.4410,15.2,99.0,12.7,-99999.0,'1111122,1111122,1199999999' 
ADCP,ioos:station:wmo:42890:1,2014-01-02T14:22:00Z,27.6250,-90.4410,15.2,100.0,12.4,-9999.0,'11111222,11111222,99999999' 
ADCP,ioos:station:wmo:42890:1,2014-01-02T14:42:00Z,27.6250,-90.4410,15.2,115.0,8.0,-99999.0,'1111122,1111122,1199999999' 
ADCP,ioos:station:wmo:42890:1,2014-01-02T15:02:00Z,27.6250,-90.4410,15.2,182.0,12.0,-99999.0,'1111122,1111122,1199999999' 
ADCP,ioos:station:wmo:42890:1,2014-01-02T15:22:00Z,27.6250,-90.4410,15.2,184.0,10.3,-9999.0,'11111222,11111222,99999999' 
ADCP,ioos:station:wmo:42890:1,2014-01-02T15:42:00Z,27.6250,-90.4410,15.2,177.0,10.2,-99999.0,'1111122,1111122,1199999999' 
ADCP,ioos:station:wmo:42890:1,2014-01-02T16:02:00Z,27.6250,-90.4410,15.2,194.0,11.5,-99999.0,'1111122,1111122,1199999999' 
ADCP,ioos:station:wmo:42890:1,2014-01-02T16:22:00Z,27.6250,-90.4410,15.2,197.0,13.8,-9999.0,'11111222,11111222,99999999' 
ADCP,ioos:station:wmo:42890:1,2014-01-02T16:42:00Z,27.6250,-90.4410,15.2,214.0,16.7,-99999.0,'1111122,1111122,1199999999' 
ADCP,ioos:station:wmo:42890:1,2014-01-02T17:02:00Z,27.6250,-90.4410,15.2,214.0,17.9,-99999.0,'1111122,1111122,1199999999' 
ADCP,ioos:station:wmo:42890:1,2014-01-02T17:22:00Z,27.6250,-90.4410,15.2,206.0,20.1,-9999.0,'11111222,11111222,99999999' 
ADCP,ioos:station:wmo:42890:1,2014-01-02T17:42:00Z,27.6250,-90.4410,15.2,202.0,19.1,-9999.0,'11111222,11111222,99999999' 
ADCP,ioos:station:wmo:42890:1,2014-01-02T18:02:00Z,27.6250,-90.4410,15.2,194.0,17.9,-99999.0,'1111122,1111122,1199999999' 
ADCP,ioos:station:wmo:42890:1,2014-01-02T18:22:00Z,27.6250,-90.4410,15.2,186.0,18.3,-9999.0,'11111222,11111222,99999999' 
ADCP,ioos:station:wmo:42890:1,2014-01-02T18:42:00Z,27.6250,-90.4410,15.2,195.0,21.4,-99999.0,'1111122,1111122,1199999999' 
ADCP,ioos:station:wmo:42890:1,2014-01-02T19:02:00Z,27.6250,-90.4410,15.2,191.0,19.8,-99999.0,'1111122,1111122,1199999999' 
ADCP,ioos:station:wmo:42890:1,2014-01-02T19:22:00Z,27.6250,-90.4410,15.2,182.0,18.1,-9999.0,'11111222,11111222,99999999' 
ADCP,ioos:station:wmo:42890:1,2014-01-02T19:42:00Z,27.6250,-90.4410,15.2,185.0,19.1,-99999.0,'1111122,1111122,1199999999' 
ADCP,ioos:station:wmo:42890:1,2014-01-02T20:02:00Z,27.6250,-90.4410,15.2,189.0,19.5,-9999.0,'11111222,11111222,99999999' 
ADCP,ioos:station:wmo:42890:1,2014-01-02T20:22:00Z,27.6250,-90.4410,15.2,185.0,19.0,-9999.0,'11111222,11111222,99999999' 
ADCP,ioos:station:wmo:42890:1,2014-01-02T20:42:00Z,27.6250,-90.4410,15.2,164.0,19.4,-99999.0,'1111122,1111122,1199999999' 
ADCP,ioos:station:wmo:42890:1,2014-01-02T21:02:00Z,27.6250,-90.4410,15.2,193.0,22.1,-99999.0,'1111122,1111122,1199999999' 
ADCP,ioos:station:wmo:42890:1,2014-01-02T21:22:00Z,27.6250,-90.4410,15.2,194.0,22.4,-9999.0,'11111222,11111222,99999999' 
ADCP,ioos:station:wmo:42890:1,2014-01-02T21:42:00Z,27.6250,-90.4410,15.2,196.0,22.3,-99999.0,'1111122,1111122,1199999999' 
ADCP,ioos:station:wmo:42890:1,2014-01-02T22:02:00Z,27.6250,-90.4410,15.2,197.0,22.6,-9999.0,'11111222,11111222,99999999' 
ADCP,ioos:station:wmo:42890:1,2014-01-02T22:22:00Z,27.6250,-90.4410,15.2,194.0,21.5,-9999.0,'11111222,11111222,99999999' 
ADCP,ioos:station:wmo:42890:1,2014-01-02T22:42:00Z,27.6250,-90.4410,15.2,196.0,24.7,-99999.0,'1111122,1111122,1199999999' 
ADCP,ioos:station:wmo:42890:1,2014-01-02T23:02:00Z,27.6250,-90.4410,15.2,205.0,22.3,-9999.0,'11111222,11111222,99999999' 
ADCP,ioos:station:wmo:42890:1,2014-01-02T23:22:00Z,27.6250,-90.4410,15.2,206.0,23.4,-9999.0,'11111222,11111222,99999999' 
ADCP,ioos:station:wmo:42890:1,2014-01-02T23:42:00Z,27.6250,-90.4410,15.2,208.0,22.9,-99999.0,'1111122,1111122,1199999999' 
ADCP,ioos:station:wmo:42890:1,2014-01-03T00:02:00Z,27.6250,-90.4410,15.2,212.0,24.0,-99999.0,'1111122,1111122,1199999999' 
ADCP,ioos:station:wmo:42890:1,2014-01-03T00:22:00Z,27.6250,-90.4410,15.2,222.0,30.2,-9999.0,'11111222,11111222,99999999' 
ADCP,ioos:station:wmo:42890:1,2014-01-03T00:42:00Z,27.6250,-90.4410,15.2,237.0,43.8,-99999.0,'1111122,1111122,1199999999' 
ADCP,ioos:station:wmo:42890:1,2014-01-03T01:02:00Z,27.6250,-90.4410,15.2,193.0,22.8,-99999.0,'1111122,1111122,1199999999' 
ADCP,ioos:station:wmo:42890:1,2014-01-03T01:22:00Z,27.6250,-90.4410,15.2,224.0,30.8,-9999.0,'11111222,11111222,99999999' 
ADCP,ioos:station:wmo:42890:1,2014-01-03T01:42:00Z,27.6250,-90.4410,15.2,206.0,22.1,-99999.0,'1111122,1111122,1199999999' 
ADCP,ioos:station:wmo:42890:1,2014-01-03T02:02:00Z,27.6250,-90.4410,15.2,207.0,20.2,-99999.0,'1111122,1111122,1199999999' 
ADCP,ioos:station:wmo:42890:1,2014-01-03T02:22:00Z,27.6250,-90.4410,15.2,213.0,24.1,-9999.0,'11111222,11111222,99999999' 
ADCP,ioos:station:wmo:42890:1,2014-01-03T02:42:00Z,27.6250,-90.4410,15.2,230.0,23.2,-99999.0,'1111122,1111122,1199999999' 
ADCP,ioos:station:wmo:42890:1,2014-01-03T03:02:00Z,27.6250,-90.4410,15.2,225.0,26.8,-99999.0,'1111122,1111122,1199999999' 
ADCP,ioos:station:wmo:42890:1,2014-01-03T03:22:00Z,27.6250,-90.4410,15.2,219.0,29.2,-9999.0,'11111222,11111222,99999999' 
ADCP,ioos:station:wmo:42890:1,2014-01-03T03:42:00Z,27.6250,-90.4410,15.2,220.0,26.6,-99999.0,'1111122,1111122,1199999999' 
ADCP,ioos:station:wmo:42890:1,2014-01-03T04:02:00Z,27.6250,-90.4410,15.2,215.0,19.1,-99999.0,'1111122,1111122,1199999999' 
ADCP,ioos:station:wmo:42890:1,2014-01-03T04:22:00Z,27.6250,-90.4410,15.2,205.0,23.5,-9999.0,'11111222,11111222,99999999' 
ADCP,ioos:station:wmo:42890:1,2014-01-03T04:42:00Z,27.6250,-90.4410,15.2,209.0,24.6,-99999.0,'1111122,1111122,1199999999' 
ADCP,ioos:station:wmo:42890:1,2014-01-03T05:02:00Z,27.6250,-90.4410,15.2,216.0,25.7,-9999.0,'11111222,11111222,99999999' 
ADCP,ioos:station:wmo:42890:1,2014-01-03T05:22:00Z,27.6250,-90.4410,15.2,199.0,19.8,-9999.0,'11111222,11111222,99999999' 
ADCP,ioos:station:wmo:42890:1,2014-01-03T05:42:00Z,27.6250,-90.4410,15.2,214.0,27.8,-99999.0,'1111122,1111122,1199999999' 
ADCP,ioos:station:wmo:42890:1,2014-01-03T06:02:00Z,27.6250,-90.4410,15.2,232.0,33.0,-9999.0,'11111222,11111222,99999999' 
ADCP,ioos:station:wmo:42890:1,2014-01-03T06:22:00Z,27.6250,-90.4410,15.2,227.0,27.5,-9999.0,'11111222,11111222,99999999' 
ADCP,ioos:station:wmo:42890:1,2014-01-03T06:42:00Z,27.6250,-90.4410,15.2,215.0,30.4,-9999.0,'11111222,11111222,99999999' 
ADCP,ioos:station:wmo:42890:1,2014-01-03T07:02:00Z,27.6250,-90.4410,15.2,209.0,18.3,-9999.0,'11111222,11111222,99999999' 
ADCP,ioos:station:wmo:42890:1,2014-01-03T07:22:00Z,27.6250,-90.4410,15.2,214.0,20.1,-9999.0,'11111222,11111222,99999999' 
ADCP,ioos:station:wmo:42890:1,2014-01-03T07:42:00Z,27.6250,-90.4410,15.2,204.0,19.6,-9999.0,'11111222,11111222,99999999' 
ADCP,ioos:station:wmo:42890:1,2014-01-03T08:02:00Z,27.6250,-90.4410,15.2,182.0,32.0,-9999.0,'11111222,11111222,99999999' 
ADCP,ioos:station:wmo:42890:1,2014-01-03T08:22:00Z,27.6250,-90.4410,15.2,211.0,21.6,-9999.0,'11111222,11111222,99999999' 
ADCP,ioos:station:wmo:42890:1,2014-01-03T08:42:00Z,27.6250,-90.4410,15.2,213.0,25.7,-9999.0,'11111222,11111222,99999999' 
ADCP,ioos:station:wmo:42890:1,2014-01-03T09:02:00Z,27.6250,-90.4410,15.2,221.0,26.4,-9999.0,'11111222,11111222,99999999' 
ADCP,ioos:station:wmo:42890:1,2014-01-03T09:22:00Z,27.6250,-90.4410,15.2,237.0,28.5,-9999.0,'11111222,11111222,99999999' 
ADCP,ioos:station:wmo:42890:1,2014-01-03T09:42:00Z,27.6250,-90.4410,15.2,227.0,26.3,-9999.0,'11111222,11111222,99999999' 
ADCP,ioos:station:wmo:42890:1,2014-01-03T10:02:00Z,27.6250,-90.4410,15.2,212.0,22.6,-99999.0,'1111122,1111122,1199999999' 
ADCP,ioos:station:wmo:42890:1,2014-01-03T10:22:00Z,27.6250,-90.4410,15.2,222.0,27.4,-9999.0,'11111222,11111222,99999999' 
ADCP,ioos:station:wmo:42890:1,2014-01-03T10:42:00Z,27.6250,-90.4410,15.2,230.0,26.3,-99999.0,'1111122,1111122,1199999999' 
ADCP,ioos:station:wmo:42890:1,2014-01-03T11:02:00Z,27.6250,-90.4410,15.2,226.0,28.2,-99999.0,'1111122,1111122,1199999999' 
ADCP,ioos:station:wmo:42890:1,2014-01-03T11:22:00Z,27.6250,-90.4410,15.2,213.0,24.7,-9999.0,'11111222,11111222,99999999' 
ADCP,ioos:station:wmo:42890:1,2014-01-03T11:42:00Z,27.6250,-90.4410,15.2,222.0,21.4,-99999.0,'1111122,1111122,1199999999' 
ADCP,ioos:station:wmo:42890:1,2014-01-03T12:02:00Z,27.6250,-90.4410,15.2,233.0,24.3,-99999.0,'1111122,1111122,1199999999' 
ADCP,ioos:station:wmo:42890:1,2014-01-03T12:22:00Z,27.6250,-90.4410,15.2,243.0,42.5,-9999.0,'11111222,11111222,99999999' 
ADCP,ioos:station:wmo:42890:1,2014-01-03T12:42:00Z,27.6250,-90.4410,15.2,232.0,19.9,-99999.0,'1111122,1111122,1199999999' 
ADCP,ioos:station:wmo:42890:1,2014-01-03T13:02:00Z,27.6250,-90.4410,15.2,232.0,27.7,-99999.0,'1111122,1111122,1199999999' 
ADCP,ioos:station:wmo:42890:1,2014-01-03T13:22:00Z,27.6250,-90.4410,15.2,193.0,31.4,-9999.0,'11111222,11111222,99999999' 
ADCP,ioos:station:wmo:42890:1,2014-01-03T13:42:00Z,27.6250,-90.4410,15.2,226.0,20.4,-99999.0,'1111122,1111122,1199999999' 
ADCP,ioos:station:wmo:42890:1,2014-01-03T14:02:00Z,27.6250,-90.4410,15.2,237.0,18.0,-99999.0,'1111122,1111122,1199999999' 
ADCP,ioos:station:wmo:42890:1,2014-01-03T14:22:00Z,27.6250,-90.4410,15.2,235.0,18.8,-9999.0,'11111222,11111222,99999999' 
ADCP,ioos:station:wmo:42890:1,2014-01-03T14:42:00Z,27.6250,-90.4410,15.2,238.0,21.1,-99999.0,'1111122,1111122,1199999999' 
ADCP,ioos:station:wmo:42890:1,2014-01-03T15:02:00Z,27.6250,-90.4410,15.2,246.0,25.5,-99999.0,'1111122,1111122,1199999999' 
ADCP,ioos:station:wmo:42890:1,2014-01-03T15:22:00Z,27.6250,-90.4410,15.2,249.0,18.5,-9999.0,'11111222,11111222,99999999' 
ADCP,ioos:station:wmo:42890:1,2014-01-03T15:42:00Z,27.6250,-90.4410,15.2,235.0,26.1,-99999.0,'1111122,1111122,1199999999' 
ADCP,ioos:station:wmo:42890:1,2014-01-03T16:02:00Z,27.6250,-90.4410,15.2,234.0,16.9,-99999.0,'1111122,1111122,1199999999' 
ADCP,ioos:station:wmo:42890:1,2014-01-03T16:22:00Z,27.6250,-90.4410,15.2,254.0,30.6,-9999.0,'11111222,11111222,99999999' 